Volver al catálogo

COSMOS 1661

ActivoNavegaciónHEO
NORAD 15827·PAYLOAD·🇷🇺 Russia

Lanzado Jun 18, 1985 desde Plesetsk Cosmodrome

Loading…

Próximos Pases (próximas 24 horas)

TLE

ActualizadoSource: Space-Track

Época: Sep 14, 2026, 22:19 UTC

1 15827U 85049A   26257.93006719 -.00000846  00000-0  00000-0 0  9995
2 15827  67.7409 102.9596 5914442  59.8231 345.8769  2.00556541302091

Sigue COSMOS 1661 en tiempo real con AllMySat

Download on the App Store